AirNav   Textron
 
 722 users online  

AZ58 Roosevelt Dam Heliport
Roosevelt, Arizona, USA


FAA INFORMATION EFFECTIVE 09 NOVEMBER 2017

Location

FAA Identifier: AZ58
Lat/Long: 33-40-15.1730N / 111-09-43.4460W
33-40.252883N / 111-09.724100W
33.6708814 / -111.1620683
(estimated)
Elevation: 1895 ft. / 578 m (estimated)
Variation: 12E (1985)
From city: 2 miles W of ROOSEVELT, AZ
Time zone: UTC -7 (year round; does not observe DST)
Zip code: 85545

Heliport Operations

Heliport use: Private use. Permission required prior to landing
Activation date: 09/1982
Control tower: no
ARTCC: ALBUQUERQUE CENTER
FSS: PRESCOTT FLIGHT SERVICE STATION
Attendance: UNATNDD
Wind indicator: yes
Segmented circle: no

Nearby radio navigation aids

VOR radial/distance  VOR name  Freq  Var
IWAr035/33.0WILLIE VORTAC113.3013E

Heliport Services

Runway Information

Helipad H1

Dimensions: 70 x 50 ft. / 21 x 15 m
Surface: concrete
Latitude: 33-40.252833N
Longitude: 111-09.724167W
Elevation: 1895.0 ft.
Traffic pattern: leftleft

Heliport Ownership and Management from official FAA records

Ownership: Privately-owned
Owner: SALT RIVER PROJECT
2601 E. AIRLANE
PHOENIX, AZ 85034
Phone 602-236-2479
Manager: JEFFREY R. CAMPBELL
2601 E. AIRLANE
PHOENIX, AZ 85034
Phone 480-375-1003

Additional Remarks

A52-H1 1000' MOUNTAIN 300' NORTH & SOUTH; 250' DAM 600' EAST.

Instrument Procedures

There are no published instrument procedures at AZ58.

Some nearby airports with instrument procedures:

KFFZ - Falcon Field Airport (31 nm SW)
P13 - San Carlos Apache Airport (31 nm SE)
KIWA - Phoenix-Mesa Gateway Airport (33 nm SW)
KPAN - Payson Airport (36 nm N)
KSDL - Scottsdale Airport (37 nm W)
 
Loc | Ops | Rwys | IFR | FBO | Links
Com | Nav | Svcs | Stats | Notes


 
Area around AZ58 (Roosevelt Dam Heliport)
 
Road maps at: MapQuest Bing Google
 
Aerial photo
No photo
 
Sectional chart

 
Airport distance calculator
Flying to Roosevelt Dam Heliport? Find the distance to fly.

From to AZ58

Sunrise and sunset
Times for 22-Nov-2017
 Local
(UTC-7)
 Zulu
(UTC)
Morning civil twilight06:3713:37
Sunrise07:0414:04
Sunset17:1800:18
Evening civil twilight17:4400:44

Current date and time
Zulu (UTC)  23-Nov-2017 02:52:32
Local (UTC-7)  22-Nov-2017 19:52:32
 
METAR
KFFZ 
30nm SW 
230147Z 00000KT 40SM SKC 24/M01 A3009
KIWA 
33nm SW 
230148Z 36003KT 20SM SKC 24/M02 A3009
KPAN 
36nm N 
230235Z AUTO 02012KT 6SM HZ CLR 16/M03 A3034 RMK AO2
KSDL 
38nm W 
230153Z 36004KT 10SM CLR 25/01 A3011 RMK AO2 SLP180 T02500011
KCHD 
41nm SW 
230147Z 00000KT 10SM CLR 24/M01 A3008
KDVT 
45nm W 
230153Z 00000KT 10SM CLR 23/M03 A3009 RMK AO2 SLP173 T02331033
KPHX 
47nm W 
230151Z 00000KT 10SM CLR 25/M02 A3006 RMK AO2 SLP169 T02501017
TAF
KIWA 
33nm SW 
221922Z 2219/2318 10008KT P6SM SKC FM222200 VRB04KT P6SM FEW250 FM230400 11006KT P6SM FEW250
KSDL 
38nm W 
221726Z 2218/2318 10005KT P6SM SKC FM230000 VRB04KT P6SM SKC
NOTAMs
Click for the latest NOTAMs
NOTAMs are issued by the DoD/FAA and will open in a separate window not controlled by AirNav.

 

 
 

Would you like to see your business listed on this page?

 If your business provides an interesting product or service to pilots, flight crews, aircraft, or users of the Roosevelt Dam Heliport, you should consider listing it here.  To start the listing process, click on the button below
 
Add a business
 

Other Pages about Roosevelt Dam Heliport

Update a link
 
Copyright © AirNav, LLC. All rights reserved. Privacy Policy  Contact